FLOCK 3M-1

Last updated on Wed Feb 14 2018 16:20:54 GMT+0000 (Coordinated Universal Time)

1 42995U 17068J 18045.27425256 .00002830 00000-0 14097-3 0 9999 2 42995 97.3450 161.3846 0016966 213.0036 147.0141 15.18257922 15984
UTC large
Height (km)
Speed (km/s)
/
Latitude / Longitude
Inclination (degrees)
Orbital Period (minutes)
Azimuth
Elevation
Range (km)
Doppler Factor

Next 0 passes for location: London (51.5072 / 0.1276)

Sorry there are no passes over London.